User: anonymous   Login
Location: Unspecified
(0.0000°N, 0.0000°E)
Time: 21:08:59
(UTC+02:00)
Language:

Meteor PRIRODA - Orbit

View from above orbital plane
View from above orbital plane
View from above satellite
View from above satellite

Ground track
Ground track

The orbit data is extracted from the following two-line orbital elements,

1 12585U 81065A   16178.55832259  .00000693  00000-0  35763-4 0  9999
2 12585  97.3890 158.1814 0014456 197.0392 283.2619 15.19515178908256
Epoch (UTC): 26 June 2016 13:23:59
Eccentricity: 0.0014456
inclination: 97.3890°
perigee height: 497 km
apogee height: 517 km
right ascension of ascending node: 158.1814°
argument of perigee: 197.0392°
revolutions per day: 15.19515178
mean anomaly at epoch: 283.2619°
orbit number at epoch: 90825

The dashed part of the orbit path shows where the satellite is in the earth's shadow,  

DLR